• în Republica Moldova
  • Lista ţărilor
  • Pe 7 zile
  • Temperatura apei
  • Hartă satelitară
  • Meteo pe hartă
  • Widget-uri
  • user-avatar
    Intrare

    Meteo pe oră la Innsbruck

    Astăzi, 18 August, Vineri

    Timp Temperatura Precipitaţii Vânt Presiune Umiditate
    00:00 +9°C° 0 mm 1 m/s 600 mmHg 89%
    01:00 +9°C° 0 mm 2 m/s 600 mmHg 90%
    02:00 +8°C° 0 mm 2 m/s 600 mmHg 90%
    03:00 +9°C° 0 mm 1 m/s 600 mmHg 91%
    04:00 +9°C° 0 mm 1 m/s 600 mmHg 91%
    05:00 +10°C° 0 mm 1 m/s 600 mmHg 89%
    06:00 +11°C° 0 mm 1 m/s 601 mmHg 87%
    07:00 +13°C° 0 mm 2 m/s 602 mmHg 83%
    08:00 +15°C° 0 mm 2 m/s 602 mmHg 75%
    09:00 +17°C° 0 mm 2 m/s 603 mmHg 66%
    10:00 +19°C° 0 mm 2 m/s 604 mmHg 58%
    11:00 +20°C° 0,1 mm 2 m/s 603 mmHg 56%
    12:00 +20°C° 0,1 mm 2 m/s 603 mmHg 54%
    13:00 +21°C° 0,1 mm 2 m/s 603 mmHg 52%
    14:00 +20°C° 0,7 mm 2 m/s 603 mmHg 57%
    15:00 +19°C° 0,7 mm 2 m/s 602 mmHg 61%
    16:00 +19°C° 0,7 mm 2 m/s 601 mmHg 66%
    17:00 +17°C° 1,6 mm 2 m/s 601 mmHg 73%
    18:00 +15°C° 1,6 mm 2 m/s 600 mmHg 80%
    19:00 +14°C° 1,6 mm 2 m/s 600 mmHg 87%
    20:00 +13°C° 1,3 mm 2 m/s 600 mmHg 90%
    21:00 +12°C° 1,3 mm 2 m/s 599 mmHg 93%
    22:00 +10°C° 1,3 mm 2 m/s 599 mmHg 96%
    23:00 +10°C° 1,5 mm 2 m/s 599 mmHg 96%

    Mâine, 19 August, Sâmbătă

    Timp Temperatura Precipitaţii Vânt Presiune Umiditate
    00:00 +10°C° 1,5 mm 2 m/s 599 mmHg 97%
    01:00 +10°C° 1,5 mm 1 m/s 599 mmHg 97%
    02:00 +10°C° 5,7 mm 1 m/s 599 mmHg 97%
    03:00 +10°C° 5,7 mm 1 m/s 598 mmHg 97%
    04:00 +9°C° 5,7 mm 1 m/s 598 mmHg 98%
    05:00 +9°C° 3,2 mm 1 m/s 598 mmHg 97%
    06:00 +8°C° 3,2 mm 1 m/s 598 mmHg 97%
    07:00 +8°C° 3,2 mm 1 m/s 598 mmHg 96%
    08:00 +8°C° 1,9 mm 1 m/s 598 mmHg 95%
    09:00 +8°C° 1,9 mm 1 m/s 598 mmHg 94%
    10:00 +8°C° 1,9 mm 1 m/s 598 mmHg 93%
    11:00 +7°C° 1,7 mm 2 m/s 598 mmHg 93%
    12:00 +7°C° 1,7 mm 2 m/s 598 mmHg 93%
    13:00 +7°C° 1,7 mm 2 m/s 598 mmHg 93%
    14:00 +7°C° 1,3 mm 2 m/s 598 mmHg 93%
    15:00 +7°C° 1,3 mm 2 m/s 598 mmHg 92%
    16:00 +6°C° 1,3 mm 2 m/s 598 mmHg 92%
    17:00 +6°C° 0,4 mm 2 m/s 599 mmHg 92%
    18:00 +6°C° 0,4 mm 2 m/s 599 mmHg 92%
    19:00 +5°C° 0,4 mm 2 m/s 599 mmHg 92%
    20:00 +5°C° 0,1 mm 2 m/s 598 mmHg 93%
    21:00 +4°C° 0,1 mm 2 m/s 598 mmHg 94%
    22:00 +3°C° 0,1 mm 2 m/s 598 mmHg 95%
    23:00 +3°C° 0 mm 2 m/s 598 mmHg 95%

    Poimâine, 20 August, Duminică

    Timp Temperatura Precipitaţii Vânt Presiune Umiditate
    00:00 +3°C° 0 mm 2 m/s 598 mmHg 95%
    01:00 +2°C° 0 mm 2 m/s 598 mmHg 95%
    02:00 +2°C° 0 mm 2 m/s 598 mmHg 95%
    03:00 +2°C° 0 mm 2 m/s 598 mmHg 95%
    04:00 +2°C° 0 mm 2 m/s 598 mmHg 95%
    05:00 +3°C° 0,1 mm 2 m/s 598 mmHg 94%
    06:00 +3°C° 0,1 mm 2 m/s 599 mmHg 92%
    07:00 +4°C° 0,1 mm 2 m/s 599 mmHg 91%
    08:00 +5°C° 0,1 mm 2 m/s 600 mmHg 84%
    09:00 +7°C° 0,1 mm 2 m/s 600 mmHg 77%
    10:00 +8°C° 0,1 mm 2 m/s 601 mmHg 70%
    11:00 +9°C° 0,1 mm 2 m/s 601 mmHg 64%
    12:00 +10°C° 0,1 mm 2 m/s 602 mmHg 58%
    13:00 +12°C° 0,1 mm 2 m/s 602 mmHg 52%
    14:00 +12°C° 0,1 mm 2 m/s 602 mmHg 53%
    15:00 +12°C° 0,1 mm 2 m/s 602 mmHg 53%
    16:00 +12°C° 0,1 mm 2 m/s 602 mmHg 54%
    17:00 +9°C° 0 mm 2 m/s 601 mmHg 65%
    18:00 +7°C° 0 mm 2 m/s 601 mmHg 75%
    19:00 +6°C° 0 mm 2 m/s 600 mmHg 85%
    20:00 +6°C° 0 mm 1 m/s 600 mmHg 88%
    21:00 +5°C° 0 mm 1 m/s 600 mmHg 91%
    22:00 +4°C° 0 mm 1 m/s 600 mmHg 93%
    23:00 +4°C° 0 mm 1 m/s 600 mmHg 93%

    21 August, Luni

    Timp Temperatura Precipitaţii Vânt Presiune Umiditate
    00:00 +3°C° 0 mm 1 m/s 599 mmHg 94%
    01:00 +3°C° 0 mm 1 m/s 599 mmHg 94%
    02:00 +2°C° 0 mm 1 m/s 599 mmHg 92%
    03:00 +2°C° 0 mm 1 m/s 598 mmHg 91%
    04:00 +2°C° 0 mm 1 m/s 598 mmHg 89%
    05:00 +3°C° 0 mm 1 m/s 599 mmHg 84%
    06:00 +4°C° 0 mm 1 m/s 599 mmHg 78%
    07:00 +6°C° 0 mm 1 m/s 600 mmHg 72%
    08:00 +8°C° 0 mm 1 m/s 601 mmHg 62%
    09:00 +10°C° 0 mm 1 m/s 602 mmHg 52%
    10:00 +12°C° 0 mm 2 m/s 603 mmHg 42%
    11:00 +13°C° 0 mm 2 m/s 603 mmHg 40%
    12:00 +14°C° 0 mm 2 m/s 603 mmHg 38%
    13:00 +15°C° 0 mm 2 m/s 603 mmHg 36%
    14:00 +15°C° 0 mm 2 m/s 603 mmHg 39%
    15:00 +15°C° 0 mm 2 m/s 603 mmHg 41%
    16:00 +13°C° 0 mm 3 m/s 602 mmHg 44%
    17:00 +12°C° 0 mm 2 m/s 602 mmHg 56%
    18:00 +9°C° 0 mm 2 m/s 601 mmHg 68%
    19:00 +7°C° 0 mm 2 m/s 600 mmHg 79%
    20:00 +7°C° 0 mm 1 m/s 600 mmHg 84%
    21:00 +6°C° 0 mm 1 m/s 600 mmHg 88%
    22:00 +4°C° 0 mm 1 m/s 599 mmHg 93%
    23:00 +4°C° 0 mm 1 m/s 599 mmHg 92%

    22 August, Marţi

    Timp Temperatura Precipitaţii Vânt Presiune Umiditate
    00:00 +4°C° 0 mm 1 m/s 599 mmHg 92%
    01:00 +4°C° 0 mm 1 m/s 599 mmHg 92%
    02:00 +3°C° 0 mm 1 m/s 599 mmHg 91%
    03:00 +3°C° 0 mm 1 m/s 598 mmHg 90%
    04:00 +3°C° 0 mm 1 m/s 598 mmHg 90%
    05:00 +5°C° 0 mm 1 m/s 599 mmHg 86%
    06:00 +6°C° 0 mm 1 m/s 600 mmHg 81%
    07:00 +8°C° 0 mm 1 m/s 600 mmHg 77%
    08:00 +10°C° 0 mm 1 m/s 601 mmHg 68%
    09:00 +12°C° 0 mm 1 m/s 602 mmHg 59%
    10:00 +15°C° 0 mm 1 m/s 603 mmHg 49%
    11:00 +15°C° 0 mm 1 m/s 603 mmHg 46%
    12:00 +16°C° 0 mm 2 m/s 603 mmHg 44%
    13:00 +17°C° 0 mm 2 m/s 603 mmHg 41%
    14:00 +17°C° 0 mm 2 m/s 603 mmHg 43%
    15:00 +17°C° 0 mm 2 m/s 603 mmHg 45%
    16:00 +17°C° 0 mm 2 m/s 602 mmHg 47%
    17:00 +14°C° 0 mm 2 m/s 601 mmHg 59%
    18:00 +12°C° 0 mm 2 m/s 600 mmHg 71%
    19:00 +10°C° 0 mm 1 m/s 600 mmHg 83%
    20:00 +9°C° 0 mm 1 m/s 599 mmHg 86%
    21:00 +7°C° 0 mm 1 m/s 599 mmHg 90%
    22:00 +6°C° 0 mm 1 m/s 599 mmHg 93%
    23:00 +6°C° 0 mm 1 m/s 599 mmHg 92%

    23 August, Miercuri

    Timp Temperatura Precipitaţii Vânt Presiune Umiditate
    00:00 +6°C° 0 mm 1 m/s 598 mmHg 92%
    01:00 +6°C° 0 mm 1 m/s 598 mmHg 92%
    02:00 +6°C° 0 mm 1 m/s 598 mmHg 91%
    03:00 +6°C° 0 mm 1 m/s 598 mmHg 90%
    04:00 +6°C° 0 mm 1 m/s 598 mmHg 89%
    05:00 +7°C° 0 mm 1 m/s 599 mmHg 84%
    06:00 +9°C° 0 mm 1 m/s 600 mmHg 78%
    07:00 +10°C° 0 mm 1 m/s 600 mmHg 73%
    08:00 +12°C° 0 mm 1 m/s 601 mmHg 63%
    09:00 +15°C° 0 mm 1 m/s 602 mmHg 53%
    10:00 +18°C° 0 mm 1 m/s 603 mmHg 44%
    11:00 +19°C° 0 mm 1 m/s 603 mmHg 41%
    12:00 +19°C° 0 mm 2 m/s 604 mmHg 39%
    13:00 +20°C° 0 mm 2 m/s 604 mmHg 37%
    14:00 +19°C° 0 mm 2 m/s 603 mmHg 39%
    15:00 +19°C° 0 mm 2 m/s 603 mmHg 41%
    16:00 +19°C° 0 mm 2 m/s 603 mmHg 43%
    17:00 +16°C° 0 mm 2 m/s 602 mmHg 55%
    18:00 +14°C° 0 mm 1 m/s 601 mmHg 67%
    19:00 +11°C° 0 mm 1 m/s 600 mmHg 79%
    20:00 +10°C° 0 mm 1 m/s 600 mmHg 81%
    21:00 +9°C° 0 mm 1 m/s 600 mmHg 83%
    22:00 +8°C° 0 mm 1 m/s 600 mmHg 85%
    23:00 +8°C° 0 mm 1 m/s 599 mmHg 83%
    Arată mai mult